Simultaneous Nadir Overpasses (SNOs) Predictions

Prediction of SNOs between GOES-15 and METOP-C Satellite Orbit:

Table of predicted SNOs for the next 14.0 days since TLE Epoch: 2/20/2022
Index Date Time (GOES-15) GOES-15 Lat,Lon METOP-C Lat,Lon Distance(km) Time Diff (sec)
1 02/20/2022 05:53:02 -0.02,-127.83 0.56,-125.14 305.51 80
2 02/21/2022 18:09:13 0.02,-127.82 0.45,-129.70 214.77 80
3 02/22/2022 17:51:14 0.02,-127.78 -0.67,-124.71 350.67 80
4 02/24/2022 06:07:34 -0.02,-127.68 -0.35,-129.30 183.94 80
5 02/25/2022 05:49:33 -0.02,-127.64 0.72,-124.30 381.01 80
6 02/26/2022 18:05:45 0.02,-127.62 0.30,-128.86 140.91 80
7 02/27/2022 17:47:45 0.02,-127.58 -0.82,-123.86 423.80 80
8 03/01/2022 06:04:05 -0.02,-127.47 -0.24,-128.45 111.28 80
9 03/02/2022 05:46:04 -0.03,-127.43 0.83,-123.44 453.53 80
10 03/03/2022 18:02:16 0.03,-127.41 0.14,-128.01 68.57 80
11 03/04/2022 17:44:16 0.03,-127.37 -0.93,-123.01 496.27 80
